Hourly Weather Otradnoe

Today, 30 July, Friday

Time Temperature Precipitation Wind Pressure Humidity
00:00 +25°C° 0 mm 2 mps 754 mmHg 68%
01:00 +25°C° 0 mm 1 mps 754 mmHg 68%
02:00 +24°C° 0 mm 1 mps 754 mmHg 68%
03:00 +24°C° 0 mm 1 mps 754 mmHg 67%
04:00 +24°C° 0.1 mm 1 mps 754 mmHg 68%
05:00 +24°C° 0.1 mm 2 mps 754 mmHg 69%
06:00 +24°C° 0.1 mm 2 mps 754 mmHg 70%
07:00 +25°C° 0.1 mm 2 mps 754 mmHg 67%
08:00 +27°C° 0.1 mm 2 mps 754 mmHg 64%
09:00 +28°C° 0.1 mm 3 mps 754 mmHg 61%
10:00 +29°C° 0 mm 3 mps 754 mmHg 54%
11:00 +31°C° 0 mm 3 mps 754 mmHg 46%
12:00 +33°C° 0 mm 4 mps 754 mmHg 38%
13:00 +34°C° 0 mm 4 mps 754 mmHg 37%
14:00 +34°C° 0 mm 4 mps 753 mmHg 37%
15:00 +35°C° 0 mm 4 mps 753 mmHg 36%
16:00 +34°C° 0 mm 4 mps 753 mmHg 39%
17:00 +34°C° 0 mm 4 mps 753 mmHg 42%
18:00 +33°C° 0 mm 4 mps 752 mmHg 45%
19:00 +30°C° 0 mm 4 mps 752 mmHg 51%
20:00 +29°C° 0 mm 3 mps 753 mmHg 57%
21:00 +27°C° 0 mm 3 mps 753 mmHg 63%
22:00 +26°C° 0 mm 2 mps 753 mmHg 66%
23:00 +25°C° 0 mm 2 mps 753 mmHg 70%

Tomorrow, 31 July, Saturday

Time Temperature Precipitation Wind Pressure Humidity
00:00 +25°C° 0 mm 1 mps 753 mmHg 74%
01:00 +24°C° 0 mm 1 mps 753 mmHg 74%
02:00 +24°C° 0 mm 1 mps 753 mmHg 74%
03:00 +24°C° 0 mm 1 mps 753 mmHg 73%
04:00 +24°C° 0 mm 1 mps 753 mmHg 73%
05:00 +22°C° 0 mm 0 mps 753 mmHg 72%
06:00 +22°C° 0 mm 0 mps 753 mmHg 72%
07:00 +24°C° 0 mm 0 mps 753 mmHg 65%
08:00 +28°C° 0 mm 1 mps 753 mmHg 59%
09:00 +29°C° 0 mm 1 mps 753 mmHg 53%
10:00 +30°C° 0 mm 1 mps 753 mmHg 50%
11:00 +31°C° 0 mm 2 mps 753 mmHg 47%
12:00 +32°C° 0 mm 2 mps 753 mmHg 44%
13:00 +34°C° 0 mm 2 mps 753 mmHg 42%
14:00 +35°C° 0 mm 2 mps 753 mmHg 40%
15:00 +35°C° 0 mm 2 mps 753 mmHg 38%
16:00 +35°C° 0 mm 2 mps 753 mmHg 37%
17:00 +35°C° 0 mm 2 mps 753 mmHg 37%
18:00 +35°C° 0 mm 2 mps 753 mmHg 36%
19:00 +32°C° 0 mm 2 mps 753 mmHg 42%
20:00 +31°C° 0 mm 2 mps 753 mmHg 47%
21:00 +29°C° 0 mm 3 mps 753 mmHg 53%
22:00 +28°C° 0 mm 3 mps 753 mmHg 55%
23:00 +28°C° 0 mm 3 mps 754 mmHg 58%

Day after tomorrow, 1 August, Sunday

Time Temperature Precipitation Wind Pressure Humidity
00:00 +27°C° 0 mm 3 mps 754 mmHg 60%
01:00 +27°C° 0 mm 3 mps 754 mmHg 60%
02:00 +26°C° 0 mm 3 mps 754 mmHg 60%
03:00 +26°C° 0 mm 3 mps 754 mmHg 60%
04:00 +26°C° 0 mm 3 mps 754 mmHg 60%
05:00 +26°C° 0 mm 3 mps 754 mmHg 61%
06:00 +25°C° 0 mm 3 mps 754 mmHg 61%
07:00 +28°C° 0 mm 3 mps 754 mmHg 52%
08:00 +30°C° 0 mm 3 mps 754 mmHg 43%
09:00 +33°C° 0 mm 3 mps 754 mmHg 35%
10:00 +34°C° 0 mm 3 mps 754 mmHg 31%
11:00 +36°C° 0 mm 3 mps 754 mmHg 28%
12:00 +37°C° 0 mm 3 mps 754 mmHg 24%
13:00 +38°C° 0 mm 2 mps 754 mmHg 23%
14:00 +38°C° 0 mm 2 mps 754 mmHg 22%
15:00 +39°C° 0 mm 2 mps 753 mmHg 21%
16:00 +38°C° 0 mm 2 mps 753 mmHg 21%
17:00 +38°C° 0 mm 2 mps 753 mmHg 22%
18:00 +37°C° 0 mm 1 mps 753 mmHg 23%
19:00 +36°C° 0 mm 2 mps 753 mmHg 25%
20:00 +34°C° 0 mm 2 mps 753 mmHg 27%
21:00 +31°C° 0 mm 3 mps 753 mmHg 29%
22:00 +31°C° 0 mm 3 mps 753 mmHg 30%
23:00 +30°C° 0 mm 3 mps 753 mmHg 31%

2 August, Monday

Time Temperature Precipitation Wind Pressure Humidity
00:00 +29°C° 0 mm 3 mps 753 mmHg 32%
01:00 +29°C° 0 mm 3 mps 753 mmHg 33%
02:00 +28°C° 0 mm 2 mps 753 mmHg 33%
03:00 +27°C° 0 mm 2 mps 753 mmHg 33%
04:00 +27°C° 0 mm 2 mps 753 mmHg 35%
05:00 +27°C° 0 mm 2 mps 753 mmHg 36%
06:00 +26°C° 0 mm 2 mps 754 mmHg 37%
07:00 +29°C° 0 mm 2 mps 754 mmHg 33%
08:00 +31°C° 0 mm 2 mps 754 mmHg 30%
09:00 +34°C° 0 mm 2 mps 754 mmHg 26%
10:00 +36°C° 0 mm 2 mps 754 mmHg 25%
11:00 +37°C° 0 mm 2 mps 753 mmHg 23%
12:00 +38°C° 0 mm 2 mps 753 mmHg 21%
13:00 +39°C° 0 mm 2 mps 753 mmHg 20%
14:00 +39°C° 0 mm 2 mps 753 mmHg 19%
15:00 +40°C° 0 mm 2 mps 753 mmHg 18%
16:00 +40°C° 0 mm 1 mps 752 mmHg 19%
17:00 +39°C° 0 mm 1 mps 752 mmHg 20%
18:00 +39°C° 0 mm 1 mps 752 mmHg 21%
19:00 +36°C° 0 mm 1 mps 752 mmHg 24%
20:00 +35°C° 0 mm 2 mps 752 mmHg 27%
21:00 +32°C° 0 mm 2 mps 752 mmHg 29%
22:00 +31°C° 0 mm 2 mps 752 mmHg 30%
23:00 +31°C° 0 mm 2 mps 752 mmHg 31%

3 August, Tuesday

Time Temperature Precipitation Wind Pressure Humidity
00:00 +31°C° 0 mm 2 mps 752 mmHg 32%
01:00 +30°C° 0 mm 2 mps 752 mmHg 34%
02:00 +30°C° 0 mm 2 mps 752 mmHg 36%
03:00 +30°C° 0 mm 2 mps 752 mmHg 37%
04:00 +29°C° 0 mm 3 mps 752 mmHg 41%
05:00 +28°C° 0 mm 3 mps 753 mmHg 45%
06:00 +27°C° 0 mm 3 mps 753 mmHg 49%
07:00 +29°C° 0 mm 3 mps 753 mmHg 46%
08:00 +31°C° 0 mm 2 mps 753 mmHg 42%
09:00 +34°C° 0 mm 2 mps 753 mmHg 39%
10:00 +35°C° 0 mm 2 mps 753 mmHg 37%
11:00 +36°C° 0 mm 3 mps 753 mmHg 35%
12:00 +37°C° 0 mm 4 mps 753 mmHg 33%
13:00 +37°C° 0 mm 4 mps 753 mmHg 33%
14:00 +37°C° 0 mm 4 mps 753 mmHg 33%
15:00 +39°C° 0 mm 5 mps 753 mmHg 33%
16:00 +37°C° 0 mm 5 mps 753 mmHg 35%
17:00 +36°C° 0 mm 5 mps 753 mmHg 37%
18:00 +35°C° 0 mm 5 mps 753 mmHg 39%
19:00 +33°C° 0.1 mm 4 mps 753 mmHg 46%
20:00 +30°C° 0.1 mm 4 mps 754 mmHg 53%
21:00 +28°C° 0.1 mm 3 mps 754 mmHg 60%
22:00 +27°C° 0 mm 3 mps 755 mmHg 64%
23:00 +26°C° 0 mm 3 mps 755 mmHg 67%

4 August, Wednesday

Time Temperature Precipitation Wind Pressure Humidity
00:00 +25°C° 0 mm 4 mps 755 mmHg 71%
01:00 +25°C° 0 mm 3 mps 755 mmHg 73%
02:00 +24°C° 0 mm 3 mps 755 mmHg 75%
03:00 +24°C° 0 mm 3 mps 756 mmHg 77%
04:00 +24°C° 0 mm 3 mps 756 mmHg 76%
05:00 +24°C° 0 mm 3 mps 756 mmHg 76%
06:00 +22°C° 0 mm 3 mps 756 mmHg 76%
07:00 +25°C° 0 mm 2 mps 756 mmHg 69%
08:00 +26°C° 0 mm 2 mps 757 mmHg 62%
09:00 +28°C° 0 mm 2 mps 757 mmHg 55%
10:00 +29°C° 0 mm 2 mps 757 mmHg 50%
11:00 +30°C° 0 mm 2 mps 757 mmHg 45%
12:00 +32°C° 0 mm 1 mps 757 mmHg 41%
13:00 +32°C° 0 mm 2 mps 756 mmHg 38%
14:00 +34°C° 0 mm 2 mps 756 mmHg 36%
15:00 +34°C° 0 mm 3 mps 756 mmHg 33%
16:00 +34°C° 0 mm 3 mps 756 mmHg 33%
17:00 +34°C° 0 mm 3 mps 756 mmHg 33%
18:00 +34°C° 0 mm 3 mps 756 mmHg 33%
19:00 +31°C° 0 mm 3 mps 756 mmHg 36%
20:00 +29°C° 0 mm 3 mps 756 mmHg 39%
21:00 +28°C° 0 mm 3 mps 756 mmHg 42%
22:00 +27°C° 0 mm 3 mps 756 mmHg 43%
23:00 +26°C° 0 mm 4 mps 756 mmHg 43%
Show more